Weather History for Perry, IA

Change the Weather History Date:

Tuesday, July 15, 2014

  Actual Average Record
Temperature  
Mean Temperature 61 °F -  
Max Temperature 71 °F 86 °F 99 °F (1977)
Min Temperature 51 °F 62 °F 47 °F (1967)
Degree Days  
Heating Degree Days 4    
Growing Degree Days 11 (Base 50)    
Moisture  
Dew Point 52 °F    
Average Humidity 75    
Maximum Humidity 96    
Minimum Humidity 47    
Precipitation  
Precipitation 0.00 in - - ()
Sea Level Pressure  
Sea Level Pressure 30.10 in    
Wind  
Wind Speed 7 mph (NW)    
Max Wind Speed 14 mph    
Max Gust Speed 18 mph    
Visibility 10 miles    
Events      
Averages and records for this station are not official NWS values.
T = Trace of Precipitation, MM = Missing Value Source: NWS Daily Summary

Daily Weather History Graph

Daily Weather History Graph

Search for Another Location

Airport:

Trip Planner

Search our weather history database for the weather conditions in past years. The results will help you decide how hot, cold, wet, or windy it might be!

Date:

Astronomy

Jul. 15, 2014 Rise Set
Actual Time 5:54 AM CDT 8:49 PM CDT
Civil Twilight 5:21 AM CDT 9:22 PM CDT
Nautical Twilight 4:39 AM CDT 10:04 PM CDT
Astronomical Twilight 3:50 AM CDT 10:53 PM CDT
Moon 10:53 PM CDT (7/15) 9:54 AM CDT (7/15)
Length of Visible Light 16h 01m
Length of Day
14h 55m
Waning Gibbous, 85% of the Moon is Illuminated
Jul 15
Waning Gibbous
Jul 18
Last Quarter
Jul 26
New
Aug 3
First Quarter
Aug 10
Full

Hourly Weather History & Observations

Time (CDT) Temp. Dew Point Humidity Pressure Visibility Wind Dir Wind Speed Gust Speed Precip Events Conditions
12:15 AM 53.1 °F 50.9 °F 92% 30.09 in 10.0 mi WNW 4.6 mph - N/A   Clear
12:35 AM 53.4 °F 51.1 °F 92% 30.10 in 10.0 mi WNW 6.9 mph - N/A   Clear
12:55 AM 53.8 °F 51.1 °F 91% 30.10 in 10.0 mi WNW 6.9 mph - N/A   Clear
1:15 AM 54.1 °F 51.1 °F 89% 30.10 in 10.0 mi NW 5.8 mph - N/A   Clear
1:35 AM 54.5 °F 51.1 °F 88% 30.10 in 10.0 mi NW 6.9 mph - N/A   Clear
1:55 AM 54.1 °F 51.3 °F 90% 30.09 in 10.0 mi NW 5.8 mph - N/A   Clear
2:15 AM 53.6 °F 51.3 °F 92% 30.09 in 10.0 mi WNW 5.8 mph - N/A   Clear
2:35 AM 53.6 °F 51.3 °F 92% 30.09 in 10.0 mi WNW 5.8 mph - N/A   Clear
2:55 AM 53.2 °F 51.1 °F 92% 30.09 in 10.0 mi NW 5.8 mph - N/A   Clear
3:15 AM 53.6 °F 51.1 °F 91% 30.09 in 10.0 mi WNW 5.8 mph - N/A   Clear
3:35 AM 52.7 °F 50.9 °F 94% 30.10 in 10.0 mi WNW 4.6 mph - N/A   Clear
3:55 AM 52.7 °F 50.9 °F 94% 30.10 in 10.0 mi WNW 5.8 mph - N/A   Clear
4:15 AM 52.7 °F 50.9 °F 94% 30.11 in 10.0 mi WNW 6.9 mph - N/A   Clear
4:35 AM 52.2 °F 50.7 °F 95% 30.11 in 10.0 mi WNW 6.9 mph - N/A   Clear
4:55 AM 52.0 °F 50.5 °F 95% 30.11 in 10.0 mi WNW 5.8 mph - N/A   Clear
5:15 AM 51.8 °F 50.4 °F 95% 30.11 in 10.0 mi WNW 5.8 mph - N/A   Clear
5:35 AM 51.6 °F 50.2 °F 95% 30.11 in 10.0 mi NW 4.6 mph - N/A   Clear
5:55 AM 51.4 °F 50.2 °F 95% 30.11 in 10.0 mi NW 5.8 mph - N/A   Clear
6:15 AM 51.4 °F 50.2 °F 95% 30.11 in 10.0 mi NW 5.8 mph - N/A   Clear
6:35 AM 51.8 °F 50.5 °F 95% 30.11 in 10.0 mi NW 5.8 mph - N/A   Clear
6:55 AM 52.9 °F 50.9 °F 93% 30.11 in 10.0 mi NW 8.1 mph - N/A   Clear
7:15 AM 53.8 °F 51.3 °F 91% 30.11 in 10.0 mi NNW 5.8 mph - N/A   Clear
7:35 AM 54.9 °F 52.0 °F 90% 30.12 in 10.0 mi NNW 8.1 mph - N/A   Clear
7:55 AM 56.3 °F 51.8 °F 85% 30.11 in 10.0 mi NNW 9.2 mph - N/A   Clear
8:15 AM 57.7 °F 52.3 °F 82% 30.12 in 10.0 mi NNW 10.4 mph - N/A   Clear
8:35 AM 59.0 °F 52.0 °F 78% 30.13 in 10.0 mi North 10.4 mph 16.1 mph N/A   Clear
8:55 AM 60.1 °F 51.8 °F 74% 30.13 in 10.0 mi NNW 10.4 mph - N/A   Clear
9:15 AM 61.2 °F 51.3 °F 70% 30.13 in 10.0 mi NNW 12.7 mph - N/A   Clear
9:35 AM 62.1 °F 50.5 °F 66% 30.14 in 10.0 mi NNW 10.4 mph 17.3 mph N/A   Scattered Clouds
9:55 AM 62.2 °F 50.5 °F 65% 30.14 in 10.0 mi NW 10.4 mph 17.3 mph N/A   Scattered Clouds
10:15 AM 62.6 °F 50.7 °F 65% 30.14 in 10.0 mi North 11.5 mph 17.3 mph N/A   Mostly Cloudy
10:35 AM 62.4 °F 50.9 °F 66% 30.14 in 10.0 mi NNW 10.4 mph - N/A   Overcast
10:55 AM 63.9 °F 51.6 °F 64% 30.13 in 10.0 mi NNW 10.4 mph - N/A   Overcast
11:15 AM 64.2 °F 50.0 °F 60% 30.13 in 10.0 mi North 12.7 mph 18.4 mph N/A   Overcast
11:35 AM 64.8 °F 50.5 °F 60% 30.13 in 10.0 mi North 13.8 mph 18.4 mph N/A   Overcast
11:55 AM 65.5 °F 50.7 °F 59% 30.13 in 10.0 mi NNW 12.7 mph 18.4 mph N/A   Overcast
12:15 PM 65.1 °F 51.1 °F 60% 30.13 in 10.0 mi NNW 11.5 mph 18.4 mph N/A   Overcast
12:35 PM 65.8 °F 50.2 °F 57% 30.13 in 10.0 mi North 12.7 mph 18.4 mph N/A   Overcast
12:55 PM 66.0 °F 51.4 °F 59% 30.13 in 10.0 mi North 10.4 mph 16.1 mph N/A   Overcast
1:15 PM 66.9 °F 51.4 °F 57% 30.13 in 10.0 mi NNW 10.4 mph - N/A   Mostly Cloudy
1:35 PM 68.5 °F 52.7 °F 57% 30.11 in 10.0 mi North 10.4 mph 16.1 mph N/A   Mostly Cloudy
1:55 PM 68.4 °F 52.0 °F 56% 30.11 in 10.0 mi NNW 13.8 mph 18.4 mph N/A   Mostly Cloudy
2:15 PM 67.1 °F 51.3 °F 57% 30.11 in 10.0 mi NW 8.1 mph 17.3 mph N/A   Mostly Cloudy
2:35 PM 70.2 °F 51.6 °F 52% 30.10 in 10.0 mi NW 10.4 mph - N/A   Mostly Cloudy
2:55 PM 68.9 °F 52.0 °F 55% 30.10 in 10.0 mi NW 10.4 mph 16.1 mph N/A   Mostly Cloudy
3:15 PM 70.2 °F 52.0 °F 52% 30.09 in 10.0 mi WNW 9.2 mph - N/A   Mostly Cloudy
3:35 PM 69.1 °F 50.7 °F 52% 30.08 in 10.0 mi NW 10.4 mph - N/A   Scattered Clouds
3:55 PM 70.3 °F 52.2 °F 52% 30.08 in 10.0 mi NNW 10.4 mph 16.1 mph N/A   Mostly Cloudy
4:15 PM 68.0 °F 50.9 °F 54% 30.08 in 10.0 mi NNW 8.1 mph - N/A   Mostly Cloudy
4:35 PM 69.4 °F 51.1 °F 52% 30.08 in 10.0 mi NNW 8.1 mph - N/A   Mostly Cloudy
4:55 PM 68.4 °F 50.5 °F 53% 30.07 in 10.0 mi NNW 5.8 mph - N/A   Scattered Clouds
5:15 PM 71.6 °F 50.7 °F 48% 30.07 in 10.0 mi NNW 10.4 mph - N/A   Mostly Cloudy
5:35 PM 71.4 °F 50.7 °F 48% 30.06 in 10.0 mi NNW 9.2 mph - N/A   Overcast
5:55 PM 70.9 °F 51.1 °F 49% 30.06 in 10.0 mi NW 8.1 mph - N/A   Mostly Cloudy
6:15 PM 70.9 °F 49.8 °F 47% 30.06 in 10.0 mi NNW 8.1 mph - N/A   Mostly Cloudy
6:35 PM 67.1 °F 50.7 °F 56% 30.06 in 10.0 mi NNW 4.6 mph - N/A   Scattered Clouds
6:55 PM 68.9 °F 49.6 °F 50% 30.05 in 10.0 mi NNW 9.2 mph - N/A   Scattered Clouds
7:15 PM 68.2 °F 50.0 °F 52% 30.05 in 10.0 mi NNW 5.8 mph - N/A   Clear
7:35 PM 66.4 °F 52.9 °F 62% 30.05 in 10.0 mi NW 3.5 mph - N/A   Clear
7:55 PM 65.3 °F 53.6 °F 66% 30.05 in 10.0 mi NW 3.5 mph - N/A   Clear
8:15 PM 63.5 °F 56.3 °F 77% 30.05 in 10.0 mi WNW 3.5 mph - N/A   Scattered Clouds
8:35 PM 62.1 °F 56.3 °F 81% 30.05 in 10.0 mi WNW 3.5 mph - N/A   Mostly Cloudy
8:55 PM 59.7 °F 55.6 °F 86% 30.05 in 10.0 mi West 5.8 mph - N/A   Scattered Clouds
9:15 PM 58.1 °F 55.2 °F 90% 30.05 in 10.0 mi WNW 4.6 mph - N/A   Clear
9:35 PM 57.4 °F 54.5 °F 90% 30.06 in 10.0 mi West 5.8 mph - N/A   Clear
9:55 PM 56.8 °F 54.1 °F 91% 30.06 in 10.0 mi West 5.8 mph - N/A   Clear
10:15 PM 56.3 °F 53.8 °F 91% 30.06 in 10.0 mi West 5.8 mph - N/A   Scattered Clouds
10:35 PM 55.9 °F 54.0 °F 93% 30.07 in 10.0 mi WNW 6.9 mph - N/A   Scattered Clouds
10:55 PM 55.0 °F 53.6 °F 95% 30.07 in 10.0 mi West 5.8 mph - N/A   Scattered Clouds
11:15 PM 55.4 °F 53.6 °F 94% 30.08 in 10.0 mi WNW 4.6 mph - N/A   Mostly Cloudy
11:35 PM 55.8 °F 54.5 °F 96% 30.08 in 10.0 mi WNW 5.8 mph - N/A   Overcast
11:55 PM 56.7 °F 54.9 °F 94% 30.08 in 10.0 mi WNW 4.6 mph - N/A   Overcast